Puerto Barrios, Guatemala

5:21 AM CST on November 24, 2017 (GMT -0600)
Puerto Barrios

Weather History for MGPB - November, 2012

Change the Weather History Date:

Saturday, November 10, 2012

  Actual Average Record
Temperature  
Mean Temperature 70 °F -  
Max Temperature 73 °F 80 °F 89 °F (1997)
Min Temperature 68 °F 68 °F 62 °F (2010)
Cooling Degree Days 6    
Growing Degree Days 20 (Base 50)    
Moisture  
Dew Point 68 °F    
Average Humidity 93    
Maximum Humidity 100    
Minimum Humidity 49    
Precipitation  
Precipitation 0.16 in - - ()
Sea Level Pressure  
Sea Level Pressure 30.02 in    
Wind  
Wind Speed 2 mph ()    
Max Wind Speed 9 mph    
Max Gust Speed -    
Visibility 5.4 miles    
Events Rain    
Averages and records for this station are not official NWS values.
T = Trace of Precipitation, MM = Missing Value Source: Averaged Metar Reports

Daily Weather History Graph

Daily Weather History Graph

Search for Another Location

Airport or City:

Trip Planner

Search our weather history database for the weather conditions in past years. The results will help you decide how hot, cold, wet, or windy it might be!

Date:

Astronomy

Nov. 10, 2012 Rise Set
Actual Time 5:54 AM CST 5:21 PM CST
Civil Twilight 5:32 AM CST 5:44 PM CST
Nautical Twilight 5:06 AM CST 6:10 PM CST
Astronomical Twilight 4:40 AM CST 6:35 PM CST
Moon 2:30 AM CST (11/10) 2:43 PM CST (11/10)
Length of Visible Light 12h 11m
Length of Day
11h 26m
Waning Crescent, 14% of the Moon is Illuminated
Nov 10
Waning Crescent
Nov 13
New
Nov 20
First Quarter
Nov 28
Full
Dec 6
Last Quarter

Hourly Weather History & Observations

Time (CST) Temp. Dew Point Humidity Pressure Visibility Wind Dir Wind Speed Gust Speed Precip Events Conditions
12:00 AM 69.8 °F 69.8 °F 100% 30.04 in 6.2 mi Calm Calm - N/A   Overcast
1:00 AM 69.8 °F 69.8 °F 100% 30.01 in 6.2 mi Calm Calm - N/A   Overcast
2:00 AM 69.8 °F 68.0 °F 94% 29.98 in 6.2 mi Calm Calm - N/A   Scattered Clouds
3:00 AM 71.6 °F 69.8 °F 94% 29.98 in 6.2 mi Calm Calm - N/A   Mostly Cloudy
4:00 AM 71.6 °F 69.8 °F 94% 29.98 in 6.2 mi Calm Calm - N/A   Mostly Cloudy
5:00 AM 69.8 °F 69.8 °F 100% 30.01 in 6.2 mi Calm Calm - N/A   Mostly Cloudy
6:00 AM 70 °F 69 °F 94% 30.02 in 5 mi Calm Calm - -   Mist
6:00 AM 69.8 °F 68.0 °F 94% 30.01 in 5.0 mi Calm Calm - N/A   Overcast
6:10 AM - - N/A% - 5.0 mi Calm Calm - N/A   Light Drizzle
7:00 AM 69.8 °F 69.8 °F 100% 30.04 in 4.3 mi Calm Calm - N/A   Light Drizzle
8:00 AM 71.6 °F 69.8 °F 94% 30.06 in 5.6 mi Calm Calm - N/A   Overcast
9:00 AM 73.4 °F 69.8 °F 88% 30.06 in 6.2 mi Calm Calm - N/A   Overcast
10:00 AM 73.4 °F 68.0 °F 83% 30.06 in 5.6 mi West 6.9 mph - N/A   Light Drizzle
12:00 PM 72 °F 69 °F 87% 30.06 in 4 mi West 4.6 mph - - Rain Drizzle
12:00 PM 71.6 °F 69.8 °F 94% 30.04 in 3.7 mi West 4.6 mph - N/A   Heavy Drizzle
1:00 PM 71.6 °F 68.0 °F 88% 30.01 in 5.0 mi West 6.9 mph - N/A   Light Drizzle
2:00 PM 69.8 °F 69.8 °F 100% 29.98 in 3.7 mi Calm Calm - N/A   Drizzle
3:00 PM 69.8 °F 68.0 °F 94% 29.98 in 5.0 mi West 6.9 mph - N/A   Light Drizzle
5:00 PM 69.8 °F 68.0 °F 94% 29.98 in 3.7 mi West 9.2 mph - N/A   Drizzle
6:00 PM 70 °F 69 °F 94% 30.00 in 25 mi West 6.9 mph - -   Overcast
6:00 PM 69.8 °F 50.0 °F 49% 29.98 in 6.2 mi West 6.9 mph - N/A   Overcast
7:00 PM - - N/A% 30.00 in 4.3 mi Calm Calm - N/A   Heavy Drizzle
8:00 PM 71.6 °F 69.8 °F 94% 30.04 in 6.2 mi West 9.2 mph - N/A   Overcast
9:00 PM 71.6 °F 69.8 °F 94% 30.04 in 6.2 mi North 4.6 mph - N/A   Overcast
10:00 PM 69.8 °F 69.8 °F 100% 30.04 in 6.2 mi NNE 6.9 mph - N/A   Overcast
11:00 PM 69.8 °F 69.8 °F 100% 30.04 in 6.2 mi Calm Calm - N/A   Overcast